When you browse on this site, cookies collect data to enhance your experience and personalize the content and advertising you see.
Visit our Privacy Policy to learn more. By continuing to use the site, you agree to this use of cookies and data.
  • In Spain
  • List of Countries
  • For 7 days
  • Water Temperature
  • Satellite Maps
  • Weather Map
  • Weather Widgets
  • user-avatar
    Login

    Hourly Weather Kiustendil

    Today, 18 January, Friday

    Time Temperature Precipitation Wind Pressure Humidity
    00:00 -9°C° 0 mm 1 mps 619 mmHg 73%
    01:00 -9°C° 0 mm 1 mps 619 mmHg 74%
    02:00 -9°C° 0 mm 1 mps 619 mmHg 75%
    03:00 -9°C° 0 mm 1 mps 619 mmHg 77%
    04:00 -9°C° 0 mm 1 mps 619 mmHg 78%
    05:00 -9°C° 0 mm 1 mps 619 mmHg 78%
    06:00 -9°C° 0 mm 1 mps 619 mmHg 79%
    07:00 -9°C° 0 mm 1 mps 619 mmHg 79%
    08:00 -7°C° 0 mm 1 mps 619 mmHg 80%
    09:00 -4°C° 0 mm 1 mps 620 mmHg 82%
    10:00 -3°C° 0 mm 1 mps 621 mmHg 83%
    11:00 -2°C° 0 mm 1 mps 621 mmHg 86%
    12:00 -2°C° 0 mm 1 mps 621 mmHg 88%
    13:00 -1°C° 0 mm 1 mps 620 mmHg 90%
    14:00 -2°C° 0 mm 1 mps 620 mmHg 87%
    15:00 -2°C° 0 mm 1 mps 620 mmHg 84%
    16:00 -3°C° 0 mm 1 mps 620 mmHg 81%
    17:00 -3°C° 0.1 mm 1 mps 620 mmHg 81%
    18:00 -4°C° 0.1 mm 1 mps 620 mmHg 82%
    19:00 -4°C° 0.1 mm 1 mps 620 mmHg 82%
    20:00 -4°C° 0 mm 1 mps 620 mmHg 83%
    21:00 -6°C° 0 mm 1 mps 620 mmHg 84%
    22:00 -6°C° 0 mm 1 mps 620 mmHg 84%
    23:00 -6°C° 0.1 mm 1 mps 620 mmHg 85%

    Tomorrow, 19 January, Saturday

    Time Temperature Precipitation Wind Pressure Humidity
    00:00 -6°C° 0.1 mm 0 mps 621 mmHg 85%
    01:00 -6°C° 0.1 mm 0 mps 621 mmHg 86%
    02:00 -6°C° 0.1 mm 0 mps 621 mmHg 86%
    03:00 -6°C° 0.1 mm 0 mps 621 mmHg 87%
    04:00 -6°C° 0.1 mm 0 mps 621 mmHg 88%
    05:00 -6°C° 0.1 mm 0 mps 621 mmHg 88%
    06:00 -6°C° 0.1 mm 0 mps 621 mmHg 89%
    07:00 -6°C° 0.1 mm 0 mps 621 mmHg 89%
    08:00 -5°C° 0.1 mm 0 mps 622 mmHg 92%
    09:00 -4°C° 0.1 mm 0 mps 622 mmHg 94%
    10:00 -3°C° 0.1 mm 0 mps 623 mmHg 96%
    11:00 -3°C° 0.1 mm 0 mps 622 mmHg 95%
    12:00 -2°C° 0.1 mm 0 mps 622 mmHg 94%
    13:00 -2°C° 0.1 mm 0 mps 622 mmHg 94%
    14:00 -3°C° 0 mm 0 mps 622 mmHg 93%
    15:00 -3°C° 0 mm 0 mps 621 mmHg 93%
    16:00 -4°C° 0 mm 0 mps 621 mmHg 92%
    17:00 -5°C° 0 mm 0 mps 621 mmHg 92%
    18:00 -5°C° 0 mm 0 mps 621 mmHg 92%
    19:00 -6°C° 0 mm 1 mps 621 mmHg 91%
    20:00 -6°C° 0 mm 1 mps 621 mmHg 91%
    21:00 -6°C° 0 mm 1 mps 621 mmHg 91%
    22:00 -6°C° 0 mm 1 mps 621 mmHg 91%
    23:00 -6°C° 0 mm 1 mps 621 mmHg 91%

    Day after tomorrow, 20 January, Sunday

    Time Temperature Precipitation Wind Pressure Humidity
    00:00 -4°C° 0 mm 1 mps 621 mmHg 91%
    01:00 -4°C° 0 mm 1 mps 621 mmHg 92%
    02:00 -4°C° 0.1 mm 1 mps 621 mmHg 92%
    03:00 -4°C° 0.1 mm 1 mps 621 mmHg 93%
    04:00 -4°C° 0.1 mm 1 mps 620 mmHg 93%
    05:00 -4°C° 0 mm 1 mps 620 mmHg 93%
    06:00 -4°C° 0 mm 1 mps 620 mmHg 94%
    07:00 -4°C° 0 mm 1 mps 620 mmHg 94%
    08:00 -3°C° 0 mm 1 mps 620 mmHg 94%
    09:00 -2°C° 0 mm 1 mps 621 mmHg 95%
    10:00 -2°C° 0 mm 1 mps 621 mmHg 96%
    11:00 -1°C° 0 mm 1 mps 621 mmHg 95%
    12:00 -3°C° 0 mm 2 mps 620 mmHg 95%
    13:00 -2°C° 0 mm 2 mps 620 mmHg 94%
    14:00 -1°C° 0.3 mm 1 mps 620 mmHg 95%
    15:00 -1°C° 0.3 mm 1 mps 620 mmHg 96%
    16:00 -2°C° 0.3 mm 1 mps 620 mmHg 97%
    17:00 -2°C° 0.3 mm 1 mps 620 mmHg 97%
    18:00 -2°C° 0.3 mm 1 mps 620 mmHg 96%
    19:00 -3°C° 0.3 mm 1 mps 620 mmHg 96%
    20:00 -3°C° 0 mm 1 mps 620 mmHg 96%
    21:00 -3°C° 0 mm 1 mps 620 mmHg 96%
    22:00 -4°C° 0 mm 1 mps 620 mmHg 96%
    23:00 -4°C° 0 mm 1 mps 620 mmHg 95%

    21 January, Monday

    Time Temperature Precipitation Wind Pressure Humidity
    00:00 -5°C° 0 mm 0 mps 620 mmHg 95%
    01:00 -5°C° 0 mm 0 mps 620 mmHg 95%
    02:00 -5°C° 0 mm 0 mps 620 mmHg 94%
    03:00 -4°C° 0 mm 1 mps 620 mmHg 94%
    04:00 -6°C° 0 mm 1 mps 620 mmHg 93%
    05:00 -6°C° 0 mm 1 mps 620 mmHg 93%
    06:00 -6°C° 0 mm 1 mps 620 mmHg 92%
    07:00 -7°C° 0 mm 1 mps 620 mmHg 92%
    08:00 -4°C° 0 mm 1 mps 621 mmHg 90%
    09:00 -4°C° 0 mm 0 mps 622 mmHg 89%
    10:00 -3°C° 0 mm 0 mps 622 mmHg 87%
    11:00 -3°C° 0 mm 0 mps 622 mmHg 86%
    12:00 -2°C° 0 mm 0 mps 622 mmHg 85%
    13:00 -2°C° 0 mm 0 mps 622 mmHg 84%
    14:00 -2°C° 0 mm 1 mps 622 mmHg 85%
    15:00 -2°C° 0 mm 1 mps 622 mmHg 87%
    16:00 -3°C° 0 mm 1 mps 622 mmHg 89%
    17:00 -4°C° 0 mm 1 mps 622 mmHg 90%
    18:00 -4°C° 0 mm 1 mps 622 mmHg 90%
    19:00 -6°C° 0 mm 1 mps 622 mmHg 91%
    20:00 -6°C° 0 mm 1 mps 622 mmHg 90%
    21:00 -6°C° 0 mm 1 mps 622 mmHg 90%
    22:00 -6°C° 0 mm 1 mps 622 mmHg 89%
    23:00 -6°C° 0 mm 1 mps 622 mmHg 89%

    22 January, Tuesday

    Time Temperature Precipitation Wind Pressure Humidity
    00:00 -6°C° 0 mm 1 mps 622 mmHg 89%
    01:00 -6°C° 0 mm 1 mps 622 mmHg 89%
    02:00 -6°C° 0 mm 1 mps 621 mmHg 89%
    03:00 -7°C° 0 mm 1 mps 621 mmHg 89%
    04:00 -7°C° 0 mm 1 mps 621 mmHg 89%
    05:00 -6°C° 0.1 mm 1 mps 621 mmHg 89%
    06:00 -6°C° 0.1 mm 1 mps 621 mmHg 89%
    07:00 -4°C° 0.1 mm 1 mps 621 mmHg 90%
    08:00 -4°C° 0.1 mm 1 mps 621 mmHg 89%
    09:00 -5°C° 0.1 mm 2 mps 621 mmHg 89%
    10:00 -4°C° 0.1 mm 2 mps 621 mmHg 88%
    11:00 -4°C° 0.1 mm 2 mps 621 mmHg 88%
    12:00 -4°C° 0.1 mm 3 mps 620 mmHg 87%
    13:00 -4°C° 0.1 mm 3 mps 620 mmHg 87%
    14:00 -4°C° 0 mm 3 mps 619 mmHg 88%
    15:00 -3°C° 0 mm 2 mps 618 mmHg 90%
    16:00 -4°C° 0 mm 2 mps 618 mmHg 92%
    17:00 -4°C° 0.3 mm 2 mps 617 mmHg 93%
    18:00 -4°C° 0.3 mm 2 mps 617 mmHg 93%
    19:00 -5°C° 0.3 mm 2 mps 617 mmHg 94%
    20:00 -5°C° 0.4 mm 2 mps 617 mmHg 94%
    21:00 -5°C° 0.4 mm 2 mps 616 mmHg 94%
    22:00 -3°C° 0.4 mm 1 mps 616 mmHg 94%
    23:00 -3°C° 0.5 mm 1 mps 616 mmHg 95%

    23 January, Wednesday

    Time Temperature Precipitation Wind Pressure Humidity
    00:00 -3°C° 0.5 mm 1 mps 615 mmHg 95%
    01:00 -2°C° 0.5 mm 1 mps 615 mmHg 95%
    02:00 -2°C° 0.6 mm 1 mps 615 mmHg 95%
    03:00 -2°C° 0.6 mm 1 mps 614 mmHg 96%
    04:00 -2°C° 0.6 mm 1 mps 614 mmHg 96%
    05:00 -2°C° 0 mm 1 mps 614 mmHg 96%
    06:00 -2°C° 0 mm 1 mps 614 mmHg 96%
    07:00 -3°C° 0 mm 1 mps 614 mmHg 96%
    08:00 -2°C° 0 mm 1 mps 614 mmHg 96%
    09:00 -1°C° 0 mm 1 mps 614 mmHg 96%
    10:00 -1°C° 0 mm 1 mps 614 mmHg 96%
    11:00 -1°C° 0 mm 1 mps 614 mmHg 93%
    12:00 0°C° 0 mm 1 mps 614 mmHg 91%
    13:00 0°C° 0 mm 1 mps 613 mmHg 88%
    14:00 0°C° 0 mm 1 mps 613 mmHg 89%
    15:00 -2°C° 0 mm 0 mps 613 mmHg 91%
    16:00 -3°C° 0 mm 0 mps 612 mmHg 92%
    17:00 -4°C° 0 mm 0 mps 612 mmHg 92%
    18:00 -4°C° 0 mm 0 mps 612 mmHg 92%
    19:00 -5°C° 0 mm 0 mps 612 mmHg 92%
    20:00 -5°C° 0 mm 0 mps 612 mmHg 92%
    21:00 -6°C° 0 mm 0 mps 612 mmHg 92%
    22:00 -6°C° 0 mm 0 mps 612 mmHg 92%
    23:00 -6°C° 0 mm 0 mps 611 mmHg 92%
    Show more